Wind_Speed
96 91 83 85 87 87 92 93 91 84 76 77 85 86 92 94 90 90 92 92 90 90 90 91 88 91 89 86 88 85 79 81 79 79 76 77 73 70 69 68 66 62 63 63 64 64 65
95 93 95 95 93 95 94 92 87 87 79 79 85 92 94 98 97 93 95 97 96 93 90 90 89 88 88 88 88 83 82 78 76 78 74 75 74 77 70 69 66 65 64 66 64 65 66
104 106 99 103 101 102 102 97 88 89 89 88 91 96 99 99 100 98 99 94 95 92 92 91 90 88 86 93 87 87 85 84 85 79 77 77 75 75 72 69 68 65 66 67 70 71 69
106 108 105 105 104 103 100 98 96 92 92 95 97 101 102 104 100 95 100 100 97 96 93 92 93 88 85 89 88 90 90 89 90 85 81 81 78 79 76 73 73 71 68 72 72 74 74
108 107 109 107 101 99 99 96 93 94 99 102 104 104 106 106 105 100 99 103 101 104 98 95 97 98 92 95 96 94 95 93 92 91 88 87 82 81 81 81 80 76 75 73 74 78 81
108 108 108 103 99 100 102 105 101 98 95 97 105 101 105 106 108 109 106 109 109 110 108 98 100 102 101 99 100 100 99 101 92 93 91 91 88 84 84 87 84 81 79 80 78 82 80
108 105 106 106 105 107 108 111 106 103 100 100 103 105 106 107 107 107 110 109 113 117 110 109 107 109 106 105 109 107 105 100 101 97 95 92 88 85 87 88 87 85 83 82 82 82 77
104 106 104 102 103 102 101 105 107 107 111 110 108 109 107 109 111 112 112 114 118 120 121 119 121 111 109 110 108 108 107 106 103 105 102 97 92 90 91 88 87 88 86 84 83 85 81
112 115 111 111 109 107 111 110 112 113 116 119 118 115 113 113 113 115 118 123 124 127 129 123 125 117 117 115 107 104 106 105 106 106 106 102 96 94 94 94 91 88 87 86 86 88 87
118 118 120 121 121 117 118 120 117 121 123 128 130 124 119 120 118 119 123 129 131 132 137 126 123 119 118 114 104 104 102 103 103 102 102 101 98 99 98 96 98 95 93 90 91 90 89
133 133 131 133 133 129 127 127 129 128 128 125 126 124 124 124 126 128 126 131 132 132 138 129 125 121 115 113 110 105 103 98 97 103 99 98 99 100 100 100 101 100 99 98 94 92 91
144 139 137 138 138 136 135 134 133 130 130 131 128 129 132 130 132 132 130 131 127 135 131 122 119 115 105 101 99 96 92 88 89 88 85 86 92 96 102 102 101 101 101 101 100 95 90
137 135 136 137 136 137 133 132 133 131 131 130 131 130 130 134 129 129 125 125 128 122 119 113 99 90 83 84 81 79 79 80 81 80 80 84 87 87 91 95 102 104 101 99 99 97 93
135 136 132 133 135 134 132 131 134 131 129 128 126 128 130 124 119 118 117 115 106 96 91 83 78 74 74 72 68 68 67 68 72 74 76 79 81 84 86 90 91 93 95 96 94 97 98
128 124 120 121 127 133 127 126 125 121 118 119 122 119 116 112 103 94 87 78 78 79 76 70 66 62 60 56 60 59 60 61 63 67 71 75 79 80 80 83 85 86 87 90 94 93 93
110 108 105 102 103 109 105 101 104 103 102 96 95 90 88 81 75 73 70 66 69 65 63 60 56 53 52 50 48 51 54 55 56 58 62 68 72 74 77 80 80 82 85 86 89 90 90
102 101 100 96 96 98 98 88 88 84 80 77 74 71 68 65 62 62 60 56 54 50 49 49 49 47 44 41 42 42 44 47 49 53 58 61 63 65 69 71 73 76 80 82 85 86 86
91 90 87 85 83 79 78 74 70 66 65 64 62 63 61 52 51 48 46 43 37 37 39 41 40 39 37 33 32 33 34 37 41 46 49 50 52 56 59 63 69 71 73 75 77 77 78
84 83 82 78 76 72 71 69 63 61 58 56 53 58 47 46 45 41 36 33 30 31 33 33 35 37 34 31 29 28 30 34 37 41 42 44 45 51 54 57 60 63 68 71 71 68 68
72 73 71 68 67 66 65 62 58 54 51 48 47 47 39 43 41 36 35 30 24 23 27 26 28 29 29 27 28 29 32 32 33 35 38 42 44 49 51 54 58 61 64 68 66 63 64
65 64 64 64 61 61 59 55 53 48 44 43 42 39 44 38 39 37 33 28 22 23 25 25 21 23 22 24 26 26 26 29 31 33 38 41 45 49 52 56 58 61 64 68 64 61 48
53 51 50 50 51 51 49 51 48 43 41 39 42 44 36 33 34 34 30 25 25 23 22 20 18 19 21 21 21 23 26 31 36 40 44 46 50 54 58 61 60 59 63 63 58 55 46
41 41 41 43 44 44 43 42 41 39 38 39 46 39 32 30 34 30 30 26 26 23 20 20 20 20 19 20 24 28 32 34 38 43 47 50 54 56 57 59 55 56 60 53 50 49 41
38 36 36 39 41 41 39 40 41 40 38 41 38 35 34 34 27 26 27 26 24 25 26 24 24 23 25 27 30 33 36 40 44 50 53 56 56 50 51 51 50 51 45 47 44 38 35
34 34 35 38 39 39 41 39 37 36 34 33 36 36 28 26 29 27 28 29 30 31 29 27 28 31 32 32 32 35 40 47 51 52 52 50 48 45 43 42 39 42 42 44 38 35 33
33 35 38 39 39 39 39 38 35 33 33 33 34 31 30 29 28 26 31 30 31 28 28 29 31 29 30 33 38 44 47 48 51 47 43 41 39 38 37 34 33 37 39 37 33 30 30
36 39 40 40 40 39 38 36 34 31 31 34 33 33 31 28 29 28 28 30 29 28 31 31 31 32 36 40 43 45 46 43 38 35 36 35 35 36 35 33 33 33 32 30 28 27 27
39 40 41 41 41 39 37 34 33 32 34 35 35 36 33 33 33 32 30 29 30 30 29 32 35 39 40 42 42 38 35 32 34 33 31 32 31 31 30 28 28 26 26 25 23 24 26
42 43 43 42 39 37 36 36 35 35 37 39 40 38 34 34 35 34 34 31 29 31 34 37 39 37 38 38 34 32 31 31 31 28 27 27 26 27 26 23 23 22 20 19 21 22 24
Wind_Direction
272 263 266 267 268 268 269 274 271 272 273 273 273 272 271 273 275 278 277 277 279 280 280 280 278 279 278 277 275 277 275 277 277 277 275 276 275 276 276 277 277 272 265 268 269 268 265
266 264 267 269 272 273 273 272 271 269 268 268 272 272 271 274 275 278 280 279 279 279 278 279 279 278 274 272 273 272 274 272 273 274 274 274 278 277 277 274 274 273 269 267 269 270 267
267 266 266 269 271 271 271 269 268 269 273 270 270 271 274 274 276 279 278 277 277 277 276 277 275 273 271 270 270 268 269 270 268 269 272 271 274 275 276 271 270 269 271 270 267 267 267
266 266 266 269 272 271 269 266 267 269 267 270 274 272 274 276 277 276 276 277 277 275 275 277 278 273 272 271 269 267 266 271 270 269 269 271 271 269 269 270 269 267 268 268 268 268 269
264 263 266 267 269 270 267 267 271 272 273 271 275 273 273 274 276 276 277 276 276 275 272 275 276 275 274 273 272 269 269 267 267 270 270 270 269 269 271 269 267 266 266 270 269 267 266
264 265 266 267 267 266 264 268 269 271 269 275 277 273 272 271 274 274 274 275 276 275 275 275 277 274 269 271 273 273 271 272 271 269 268 269 268 269 269 267 270 269 265 267 268 267 266
267 266 265 266 267 269 266 267 266 269 267 273 274 275 271 272 273 274 273 275 275 276 274 276 277 277 273 267 267 266 268 267 268 270 269 268 267 268 262 265 268 267 267 266 265 266 268
266 266 265 267 268 267 269 268 266 268 268 272 276 276 272 272 273 272 273 276 275 276 277 278 278 275 274 273 269 268 268 266 264 265 266 267 267 264 263 264 265 266 265 265 266 267 268
264 266 267 266 266 267 268 271 267 268 271 272 274 274 273 271 272 272 271 273 275 277 277 278 277 276 274 276 274 272 271 269 267 263 264 263 265 263 264 266 265 264 266 265 266 266 267
264 266 266 268 268 267 268 270 270 267 269 272 273 275 274 271 270 270 270 271 274 276 277 278 278 279 281 275 273 270 269 269 264 261 262 264 263 264 265 264 266 266 265 265 264 265 268
267 266 267 266 267 267 268 268 269 270 269 271 273 274 274 274 274 273 272 274 276 277 278 279 279 280 280 277 275 274 270 266 263 260 262 263 261 262 262 262 264 264 267 267 267 269 271
266 266 265 264 266 266 267 268 269 269 269 269 270 271 273 273 273 274 274 275 278 279 279 280 279 278 275 275 273 271 266 260 259 259 259 258 256 258 258 259 262 265 267 268 270 271 272
263 264 262 263 264 265 266 267 267 268 269 268 269 271 274 273 273 275 274 277 278 277 278 279 279 277 274 271 268 265 262 257 254 253 254 255 256 258 257 258 259 262 267 269 269 272 273
263 261 262 263 263 264 265 266 268 268 269 269 270 273 273 273 276 276 275 276 276 275 274 274 272 271 271 269 264 259 256 256 254 252 250 254 254 254 256 259 261 261 264 266 268 270 272
265 265 264 265 264 263 264 264 267 268 270 271 273 272 273 273 275 275 271 272 270 269 272 273 271 269 269 264 258 255 254 254 252 252 250 251 251 254 258 258 259 260 262 264 267 268 268
265 265 265 264 264 266 265 264 266 267 270 270 273 272 271 270 270 268 268 269 267 270 270 270 269 267 263 261 258 255 251 251 251 248 247 248 252 255 256 255 259 262 263 265 267 268 269
264 264 264 265 265 265 266 264 266 266 267 268 266 266 266 266 266 265 266 261 265 264 263 263 261 257 256 252 251 249 250 248 247 248 249 250 251 254 256 259 262 263 266 268 269 270 272
261 262 261 260 260 260 261 261 262 262 260 260 263 263 263 263 262 263 265 264 265 264 261 260 256 250 243 241 245 245 244 244 244 247 251 252 254 255 259 260 262 264 266 267 269 272 276
258 258 257 257 257 256 256 257 257 256 255 255 254 257 263 264 265 262 261 257 255 264 262 255 254 250 239 233 226 228 235 241 245 248 251 253 253 257 259 260 262 264 267 271 274 275 277
254 254 255 253 252 251 250 251 251 250 250 249 247 252 258 254 254 252 246 245 245 253 261 253 245 238 228 224 229 231 234 238 241 244 247 252 253 256 259 262 265 269 273 274 276 279 277
252 250 248 247 245 244 244 244 242 242 242 240 241 243 239 243 246 247 240 232 238 240 234 231 239 244 239 241 235 231 235 243 247 251 256 260 263 264 267 269 270 273 276 278 279 280 283
243 242 240 237 236 234 233 234 231 233 231 228 232 226 227 232 240 234 222 220 227 221 221 217 225 233 233 234 243 254 254 249 252 256 259 261 263 267 269 270 273 278 280 279 280 283 280
235 234 231 227 225 221 219 220 223 221 222 222 226 219 222 232 228 223 217 212 219 219 218 224 233 238 242 247 250 255 259 261 262 263 264 267 268 270 273 276 281 280 274 280 277 274 274
225 221 217 213 209 207 207 211 215 218 221 220 222 215 216 220 224 221 211 212 216 225 228 235 244 256 263 261 257 258 261 265 269 271 272 272 275 280 280 277 273 273 276 272 271 271 265
212 209 204 201 198 196 201 206 209 215 215 214 210 213 205 204 211 216 211 213 220 227 233 241 247 253 255 256 263 267 270 270 273 276 277 279 278 273 270 269 270 269 268 270 272 270 265
199 197 194 190 189 193 196 199 204 206 207 206 203 197 194 203 210 221 220 224 229 229 236 245 249 255 263 269 274 272 273 273 276 275 277 280 278 275 274 270 266 264 264 267 266 260 251
189 187 185 184 187 189 194 194 196 197 195 195 195 194 197 206 211 215 217 221 230 238 247 249 257 264 275 273 272 272 272 276 278 278 277 276 276 274 273 269 263 259 260 259 254 248 245
182 180 181 183 185 187 187 188 187 189 191 193 195 196 203 211 216 223 232 235 240 245 250 260 264 272 272 270 271 276 281 284 281 278 279 276 274 272 267 265 262 258 253 251 246 240 235
176 179 181 182 184 184 185 183 185 187 191 194 199 203 209 215 222 228 235 239 249 261 266 268 270 269 271 275 281 287 287 282 279 282 281 281 278 275 270 263 256 250 246 238 232 228 227
Height
10669 10669 10669 10672 10673 10674 10673 10671 10670 10670 10669 10672 10672 10670 10668 10667 10666 10665 10668 10669 10671 10670 10673 10676 10679 10678 10679 10678 10668 10679 10677 10675 10675 10678 10679 10679 10681 10683 10685 10685 10685 10688 10687 10688 10689 10690 10688
10648 10649 10649 10651 10652 10652 10652 10650 10650 10649 10649 10650 10652 10651 10650 10648 10647 10647 10648 10648 10650 10650 10652 10655 10656 10660 10661 10656 10659 10657 10659 10660 10659 10659 10662 10664 10667 10667 10668 10668 10667 10670 10671 10672 10675 10673 10674
10627 10627 10628 10629 10629 10632 10632 10631 10631 10632 10632 10631 10631 10630 10629 10627 10627 10626 10627 10629 10629 10632 10630 10632 10636 10638 10642 10633 10642 10639 10639 10639 10641 10644 10645 10647 10651 10652 10653 10651 10652 10652 10656 10658 10658 10657 10660
10604 10604 10606 10610 10611 10612 10611 10611 10611 10611 10613 10612 10610 10609 10606 10603 10603 10604 10603 10606 10608 10611 10610 10613 10614 10619 10626 10614 10618 10620 10622 10619 10622 10626 10626 10628 10633 10635 10635 10635 10635 10637 10641 10641 10642 10643 10645
10581 10582 10585 10588 10590 10591 10591 10592 10593 10592 10591 10589 10587 10586 10586 10581 10579 10581 10582 10579 10581 10583 10590 10592 10594 10595 10606 10599 10596 10596 10596 10598 10603 10605 10608 10610 10612 10614 10617 10615 10616 10619 10624 10627 10626 10624 10622
10555 10558 10562 10565 10567 10568 10567 10569 10570 10571 10570 10566 10565 10562 10562 10557 10556 10558 10559 10552 10554 10555 10564 10568 10574 10572 10580 10581 10576 10572 10574 10575 10579 10582 10586 10589 10590 10596 10598 10589 10599 10601 10605 10607 10608 10601 10607
10529 10533 10536 10541 10545 10546 10546 10546 10546 10547 10547 10544 10541 10539 10536 10534 10533 10534 10530 10527 10525 10523 10537 10540 10545 10549 10553 10554 10552 10552 10554 10554 10553 10558 10561 10564 10572 10579 10566 10570 10578 10579 10583 10585 10583 10582 10594
10503 10505 10510 10513 10516 10519 10519 10520 10521 10521 10520 10518 10518 10516 10513 10510 10507 10509 10506 10498 10494 10497 10500 10509 10512 10526 10523 10520 10526 10529 10531 10531 10531 10533 10534 10541 10550 10550 10546 10552 10556 10559 10560 10561 10564 10562 10574
10475 10479 10485 10483 10487 10491 10494 10494 10496 10494 10492 10490 10489 10489 10492 10488 10482 10484 10481 10468 10467 10473 10466 10486 10479 10488 10491 10485 10497 10508 10502 10504 10506 10506 10511 10514 10525 10524 10527 10529 10534 10537 10540 10538 10543 10542 10548
10446 10451 10453 10455 10455 10462 10464 10464 10466 10467 10466 10462 10459 10462 10464 10458 10457 10454 10448 10443 10443 10445 10427 10453 10449 10453 10454 10453 10463 10470 10469 10471 10475 10480 10481 10493 10498 10502 10505 10509 10508 10514 10513 10517 10519 10523 10526
10411 10419 10423 10422 10421 10429 10433 10432 10433 10434 10433 10432 10432 10433 10431 10429 10431 10426 10424 10420 10418 10413 10390 10410 10422 10422 10427 10419 10421 10430 10428 10436 10448 10450 10456 10468 10474 10476 10480 10482 10483 10490 10490 10491 10494 10498 10505
10373 10384 10388 10388 10386 10391 10400 10397 10397 10399 10401 10404 10404 10405 10399 10400 10396 10400 10400 10393 10390 10378 10374 10378 10384 10386 10389 10387 10389 10392 10394 10406 10414 10421 10434 10436 10443 10450 10452 10456 10461 10463 10466 10468 10470 10474 10483
10335 10344 10351 10354 10352 10356 10364 10366 10366 10365 10369 10373 10374 10373 10367 10366 10370 10371 10371 10368 10357 10350 10353 10351 10353 10352 10357 10356 10359 10363 10369 10378 10389 10398 10406 10406 10414 10426 10430 10432 10437 10441 10443 10444 10448 10451 10455
10294 10308 10315 10321 10326 10321 10330 10333 10335 10335 10338 10343 10344 10342 10338 10341 10345 10339 10338 10332 10331 10329 10324 10330 10331 10331 10333 10333 10339 10343 10349 10357 10364 10374 10380 10386 10392 10399 10406 10409 10414 10420 10421 10422 10425 10427 10428
10255 10270 10277 10290 10295 10282 10298 10305 10306 10309 10312 10313 10312 10312 10313 10316 10315 10314 10310 10312 10309 10307 10307 10310 10310 10314 10315 10316 10318 10323 10330 10336 10343 10350 10358 10363 10370 10376 10384 10389 10392 10396 10398 10399 10400 10402 10402
10224 10234 10243 10252 10263 10256 10262 10275 10279 10285 10286 10288 10283 10286 10285 10291 10294 10290 10292 10295 10288 10292 10293 10293 10293 10297 10298 10301 10305 10309 10313 10320 10325 10331 10336 10342 10350 10359 10363 10367 10371 10374 10375 10375 10375 10377 10379
10193 10202 10210 10219 10230 10235 10235 10251 10254 10261 10263 10263 10263 10265 10268 10273 10275 10275 10276 10279 10278 10278 10277 10278 10281 10284 10285 10288 10292 10297 10303 10307 10312 10316 10321 10327 10335 10339 10343 10349 10351 10352 10352 10353 10352 10355 10355
10164 10174 10183 10192 10201 10210 10214 10225 10233 10238 10242 10243 10242 10248 10252 10258 10259 10260 10260 10261 10263 10263 10265 10265 10267 10269 10273 10276 10281 10287 10293 10297 10300 10304 10309 10314 10321 10323 10326 10331 10331 10332 10332 10334 10334 10335 10334
10140 10149 10158 10168 10177 10187 10195 10203 10214 10219 10223 10229 10232 10231 10239 10243 10244 10247 10248 10251 10252 10253 10255 10256 10259 10261 10263 10268 10272 10279 10283 10287 10291 10294 10298 10302 10308 10308 10311 10312 10313 10314 10313 10314 10315 10318 10316
10118 10124 10135 10146 10156 10165 10174 10185 10195 10201 10206 10213 10217 10223 10231 10229 10233 10236 10239 10241 10243 10248 10250 10252 10254 10256 10258 10261 10266 10271 10275 10280 10283 10286 10289 10291 10294 10295 10298 10300 10299 10299 10297 10294 10294 10296 10292
10094 10105 10115 10125 10134 10145 10157 10170 10177 10186 10194 10200 10206 10214 10214 10219 10222 10226 10230 10234 10237 10242 10244 10246 10249 10252 10254 10257 10261 10264 10268 10272 10276 10278 10279 10280 10281 10282 10284 10284 10285 10284 10279 10273 10274 10277 10284
10078 10087 10096 10106 10117 10129 10143 10152 10162 10173 10181 10189 10195 10200 10204 10208 10215 10220 10222 10227 10232 10237 10240 10243 10246 10249 10251 10253 10256 10259 10262 10264 10267 10268 10269 10271 10270 10269 10269 10268 10268 10269 10259 10257 10259 10260 10266
10063 10073 10082 10093 10104 10116 10129 10140 10150 10160 10169 10177 10181 10189 10196 10203 10208 10210 10215 10221 10227 10231 10235 10239 10242 10245 10246 10248 10251 10253 10255 10256 10257 10257 10258 10258 10255 10254 10256 10251 10252 10251 10241 10246 10247 10246 10251
10053 10063 10073 10083 10094 10106 10119 10129 10139 10150 10159 10166 10173 10181 10188 10195 10202 10206 10210 10216 10222 10227 10230 10234 10236 10239 10240 10243 10244 10245 10245 10245 10245 10244 10242 10241 10239 10240 10240 10236 10235 10232 10234 10230 10232 10235 10237
10045 10055 10065 10075 10087 10100 10111 10122 10133 10141 10150 10158 10165 10173 10183 10190 10197 10202 10206 10212 10217 10221 10225 10228 10231 10233 10235 10235 10235 10234 10234 10232 10230 10228 10227 10228 10226 10225 10223 10222 10224 10221 10219 10218 10222 10224 10225
10039 10049 10059 10070 10083 10095 10106 10116 10126 10135 10143 10152 10161 10169 10177 10186 10192 10197 10202 10207 10212 10216 10219 10222 10224 10224 10224 10223 10223 10222 10220 10218 10216 10215 10213 10212 10211 10211 10210 10211 10211 10209 10209 10210 10212 10214 10215
10035 10045 10055 10068 10080 10091 10101 10111 10121 10130 10139 10148 10156 10165 10173 10180 10186 10191 10197 10202 10206 10209 10212 10214 10214 10213 10213 10213 10211 10210 10208 10206 10203 10202 10200 10200 10199 10198 10198 10199 10199 10198 10198 10200 10202 10204 10207
10032 10043 10054 10066 10077 10088 10097 10107 10117 10127 10135 10144 10152 10160 10168 10175 10181 10187 10192 10196 10200 10203 10204 10204 10204 10203 10202 10201 10200 10198 10196 10194 10191 10190 10190 10189 10188 10187 10186 10188 10187 10188 10189 10192 10195 10197 10201
10031 10042 10054 10064 10074 10084 10094 10105 10114 10123 10132 10141 10148 10156 10163 10170 10175 10181 10186 10189 10191 10193 10194 10194 10194 10192 10191 10189 10189 10188 10185 10182 10180 10181 10179 10178 10177 10176 10176 10177 10178 10179 10182 10185 10188 10193 10197